Location: Nairn
(57.5833°N, 3.8667°W)
Time: 23:37:45
(UTC+00:00)

Tiros 1 - Pass Details

Date: 29 September 2022
Orbit: 629 x 662 km, 48.4° (Epoch: 09 December)

Event Time Altitude Azimuth Distance (km) Brightness Sun altitude
Exits shadow 03:18:57 25° 156° (SSE) 1,320 8.6 -23.1°
Drops below altitude 10° 03:22:04 10° 116° (ESE) 2,052 10.1 -22.7°
Sets 03:24:41 0° 104° (ESE) 2,956 11.1 -22.4°
